Starlink 33931

operational
NORAD ID: 64006 Int'l Des: 2025-101 Owner: SPXS Country: US Constellation: starlink
LEOCIRCULAR

关于 Starlink 33931

正在加载描述...

实时位置

正在加载3D地球...

即将过境

高度历史

Altitude vs Time

uPlot chart will show altitude changes over time

两行轨道根数

1 64006U 25101N 25278.35930044 .00017160 00000-0 63136-3 0 9994
2 64006 43.0001 154.8265 0001210 268.9317 91.1396 15.27594713 23320
Epoch: Oct 5, 2025 • Age: 9 hours

当前状态

高度 482.6 km
速度 7.63 km/s
星下点 1.09°N, 131.58°W
发射日期 May 14, 2025
运行时间 0.3 years
类型 internet

技术详情

分类 Payload
质量 575.00 kg
干质量 530.00 kg
总质量 575.00 kg
长度 0.30 m
直径 4.10 m
跨度 29.00 m
形状 Box + pan
制造商 SPXS
平台类型 Starlink V2MO
阶段状态 In Orbit
所有者/国家 SPXS/US

大型星座

Loading constellations...